Regional Weather Roundup
Issued by NWS

Home | Current Version | Previous Version | Graphics & Text | Print | Product List | Glossary Off
Versions: 1 2 3 4 5 6 7 8 9 10 11 12 13 14 15 16 17 18 19 20 21 22 23 24 25 26 27 28 29 30 31 32 33 34 35 36 37 38 39 40 41 42 43 44 45 46 47 48 49 50

000
ASUS43 KMKX 310620
RWRWI

WISCONSIN REGIONAL WEATHER ROUNDUP
NATIONAL WEATHER SERVICE MILWAUKEE/SULLIVAN WI
1200 AM CST SAT JAN 31 2015

NOTE: "FAIR" INDICATES FEW OR NO CLOUDS BELOW 12,000 FEET WITH NO
SIGNIFICANT WEATHER AND/OR OBSTRUCTIONS TO VISIBILITY.

WIZ001-002-006>008-014>016-023>028-310700-
NORTHWEST WISCONSIN

CITY           SKY/WX    TMP DP  RH WIND       PRES   REMARKS
SUPERIOR ARPT  CLOUDY    19  10  70 CALM      30.16F
6HR MIN TEMP:  16; 6HR MAX TEMP:  19;

ASHLAND        CLOUDY    20  10  65 SW7       30.16F WCI  11
6HR MIN TEMP:  17; 6HR MAX TEMP:  20;

HAYWARD        CLOUDY    19  10  68 S5        30.14F WCI  12
6HR MIN TEMP:  15; 6HR MAX TEMP:  19;

SIREN          CLOUDY    21  14  73 CALM      30.14F
6HR MIN TEMP:  18; 6HR MAX TEMP:  21;

CUMBERLAND     CLOUDY    18  10  73 SE3       30.13F
RICE LAKE      CLOUDY    17   9  71 SE6       30.17F WCI   9
6HR MIN TEMP:  15; 6HR MAX TEMP:  17;

CHETEK         CLOUDY    16   8  71 SE3       30.16F
6HR MIN TEMP:  13; 6HR MAX TEMP:  16;

LADYSMITH      CLOUDY    18   9  65 S6        30.18F WCI  10
6HR MIN TEMP:  15; 6HR MAX TEMP:  18;

EAU CLAIRE     CLOUDY    19   8  62 SE3       30.18F
6HR MIN TEMP:  14; 6HR MAX TEMP:  19;

MENOMONIE      CLOUDY    19  12  74 SE3       30.18F
6HR MIN TEMP:  14; 6HR MAX TEMP:  19;

NEW RICHMOND   CLOUDY    23  18  80 S7        30.14F WCI  15
6HR MIN TEMP:  17; 6HR MAX TEMP:  23;

OSCEOLA        CLOUDY    24  19  80 S7        30.17F WCI  16
6HR MIN TEMP:  20; 6HR MAX TEMP:  24;

$$

WIZ003>005-009-010-017-018-310700-
NORTH CENTRAL WISCONSIN

CITY           SKY/WX    TMP DP  RH WIND       PRES   REMARKS
MANITOWISH WTR CLOUDY    15   6  68 SW3       30.12F
6HR MIN TEMP:  14; 6HR MAX TEMP:  16;

ARBOR VITAE    CLOUDY    17   9  70 S3        30.13F
6HR MIN TEMP:  17; 6HR MAX TEMP:  18;

WOODRUFF       CLOUDY    17   9  70 S3        30.13F
6HR MIN TEMP:  17; 6HR MAX TEMP:  18;

RHINELANDER    CLOUDY    14   5  67 SW7       30.15F WCI   4
6HR MIN TEMP:  13; 6HR MAX TEMP:  16;

EAGLE RIVER    CLOUDY    15   4  62 CALM      30.13F
6HR MIN TEMP:  13; 6HR MAX TEMP:  15;

LAND O LAKES   CLOUDY    16   6  66 SW3       30.13F
6HR MIN TEMP:  15; 6HR MAX TEMP:  16;

PHILLIPS       CLOUDY    17   7  65 SW6       30.13F WCI   8
6HR MIN TEMP:  13; 6HR MAX TEMP:  17;

TOMAHAWK       CLOUDY    14   6  71 CALM      30.16F
6HR MIN TEMP:  11; 6HR MAX TEMP:  15;

MEDFORD        CLOUDY    16   7  67 S6        30.16F WCI   7
6HR MIN TEMP:  10; 6HR MAX TEMP:  16;

MERRILL        CLOUDY    15   7  70 SW3       30.18F
6HR MIN TEMP:  11; 6HR MAX TEMP:  15;

$$

WIZ029-030-035-036-043>047-310700-
CENTRAL WISCONSIN

CITY           SKY/WX    TMP DP  RH WIND       PRES   REMARKS
WAUSAU         CLOUDY    15   5  64 SW3       30.18F
6HR MIN TEMP:  12; 6HR MAX TEMP:  16;

MOSINEE        CLOUDY    18   9  68 SW7       30.20F WCI   8
MARSHFIELD     PTCLDY    14   4  64 S5        30.19F WCI   6
6HR MIN TEMP:  13; 6HR MAX TEMP:  17;

STEVENS POINT  CLOUDY    15   6  67 SW6       30.22F WCI   6
6HR MIN TEMP:   9; 6HR MAX TEMP:  16;

WAUPACA        CLOUDY    19  10  66 S3        30.24F
6HR MIN TEMP:  15; 6HR MAX TEMP:  22;

WAUTOMA        CLOUDY    11   6  80 CALM      30.25F
6HR MIN TEMP:   7; 6HR MAX TEMP:  21;

WISC RAPIDS    MOCLDY    14   5  67 S3        30.24F
6HR MIN TEMP:  11; 6HR MAX TEMP:  19;

CAMP DOUGLAS   MOCLDY    23  13  64 SW5       30.22F WCI  17
6HR MIN TEMP:   8; 6HR MAX TEMP:  23;

$$

WIZ011>013-019>022-031-037>040-048>050-310700-
NORTHEAST WISCONSIN

CITY           SKY/WX    TMP DP  RH WIND       PRES   REMARKS
ANTIGO         CLOUDY    12   6  75 S5        30.17F WCI   4
6HR MIN TEMP:  10; 6HR MAX TEMP:  15;

SHAWANO        CLOUDY    19   9  63 CALM      30.24F
6HR MIN TEMP:  19; 6HR MAX TEMP:  22;

OCONTO         MOCLDY    19  10  70 CALM      30.25F
6HR MIN TEMP:  16; 6HR MAX TEMP:  19;

STURGEON BAY   CLOUDY    19  10  68 SW6       30.26F WCI  11
6HR MIN TEMP:  16; 6HR MAX TEMP:  19;

GREEN BAY      CLOUDY    20  12  71 S6        30.26F WCI  12
6HR MIN TEMP:  17; 6HR MAX TEMP:  20;

MANITOWOC      CLOUDY    21  13  71 SW7       30.28F WCI  12
6HR MIN TEMP:  19; 6HR MAX TEMP:  21;

APPLETON       CLOUDY    19  10  68 SW6       30.25F WCI  11
CLINTONVILLE   CLOUDY    18   9  68 CALM      30.24F
OSHKOSH        CLOUDY    16   9  74 S7        30.26F WCI   6
6HR MIN TEMP:  11; 6HR MAX TEMP:  21;

$$

WIZ032>034-041-042-053>061-310700-
SOUTHWEST WISCONSIN

CITY           SKY/WX    TMP DP  RH WIND       PRES   REMARKS
LA CROSSE      PTCLDY    25  12  58 SE8       30.23F WCI  16
6HR MIN TEMP:  21; 6HR MAX TEMP:  25;

SPARTA         CLEAR     24  11  60 CALM      30.23F
6HR MIN TEMP:  10; 6HR MAX TEMP:  24;

VIROQUA        CLEAR     22  13  70 SW9       30.21F WCI  11
6HR MIN TEMP:  18; 6HR MAX TEMP:  24;

BOSCOBEL       PTCLDY    22  14  71 SW5       30.28F WCI  16
6HR MIN TEMP:  16; 6HR MAX TEMP:  23;

PRAIRIE DU CHI CLEAR     24  13  63 CALM      30.28F
6HR MIN TEMP:  20; 6HR MAX TEMP:  25;

PLATTEVILLE    CLOUDY    22  18  83 S7        30.28F WCI  14
6HR MIN TEMP:  19; 6HR MAX TEMP:  23;

$$

WIZ056-057-062-063-064-067-068-310700-
SOUTH CENTRAL WISCONSIN

CITY           SKY/WX    TMP DP  RH WIND       PRES   REMARKS
REEDSBURG      CLOUDY    23  14  69 SW6       30.24F WCI  16
6HR MIN TEMP:  17; 6HR MAX TEMP:  23;

BARABOO/DELLS  CLOUDY    23  14  68 SW9       30.24F WCI  13
6HR MIN TEMP:  15; 6HR MAX TEMP:  23;

LONE ROCK      CLOUDY    23  15  71 CALM      30.28F
6HR MIN TEMP:  13; 6HR MAX TEMP:  24;

MINERAL POINT  CLOUDY    27  18  69 S9        30.26F WCI  17
MADISON        CLOUDY    23  14  68 SW5       30.27F WCI  17
6HR MIN TEMP:  17; 6HR MAX TEMP:  23;

MIDDLETON      CLOUDY    24  15  66 SW8       30.27F WCI  16
6HR MIN TEMP:  16; 6HR MAX TEMP:  24;

WATERTOWN      MOCLDY    18  13  82 CALM      30.28F
6HR MIN TEMP:  15; 6HR MAX TEMP:  21;

MONROE         CLOUDY    21  19  93 S9        30.27F WCI  11
JANESVILLE     CLOUDY    23  18  80 SW12      30.29F WCI  12
$$

WIZ051-052-058>065-066-070>072-310700-
SOUTHEAST WISCONSIN

CITY           SKY/WX    TMP DP  RH WIND       PRES   REMARKS
MILWAUKEE      PTCLDY    20  11  68 SW9       30.31F WCI   9
6HR MIN TEMP:  19; 6HR MAX TEMP:  25;

WAUKESHA       PTCLDY    18  10  73 SW6       30.30S WCI   9
MILWAUKEE/TIMM CLEAR     19  12  73 SW9       30.31S WCI   9
RACINE         PTCLDY    19  12  74 S7        30.32F WCI  10
6HR MIN TEMP:  18; 6HR MAX TEMP:  24;

BURLINGTON     MOCLDY    13  11  91 S5        30.29F WCI   6
6HR MIN TEMP:  10; 6HR MAX TEMP:  19;

KENOSHA        PTCLDY    19  13  77 SW7       30.31F WCI  10
6HR MIN TEMP:  18; 6HR MAX TEMP:  23;

FOND DU LAC    MOCLDY    17   8  67 S7        30.27F WCI   8
6HR MIN TEMP:  13; 6HR MAX TEMP:  21;

SHEBOYGAN      CLOUDY    18  10  71 SW3       30.29S
6HR MIN TEMP:  17; 6HR MAX TEMP:  21;

WEST BEND      PTCLDY    19  12  73 SW5       30.28F WCI  13
JUNEAU         MOCLDY    17  11  80 S6        30.28F WCI   8
6HR MIN TEMP:  15; 6HR MAX TEMP:  21;

$$

LSZ147-162-310700-
LAKE SUPERIOR

STATION/POSITION TIME  TEMP    WIND        PRES    WAVE
                       AIR SEA DIR/SP/G            HT/PER
                 (UTC) (F)     (DEG/KT/KT) (MB)    (FT/S)
DEVILS ISLAND    0600   21     230/ 11/ 15 1022.1F
PORT WING        0540   20     210/  3/  6 1021.7F
SAXON HARBOR     0500   20     190/  4/  8 1021.7F
$$

LMZ867-665-643>646-310700-
LAKE MICHIGAN

STATION/POSITION TIME  TEMP    WIND        PRES    WAVE


USA.gov is the U.S. government's official web portal to all federal, state and local government web resources and services.